Location: Passau
(48.5830°N, 13.4830°E)
Time: 01:03:29
(UTC+02:00)

Envisat - Visible Passes

Search period start: 16 April 2024 00:00
Search period end: 26 April 2024 00:00
Orbit: 762 x 764 km, 98.3° (Epoch: 15 April)

Date Brightness Start Highest point End Pass type
(mag) Time Alt. Az. Time Alt. Az. Time Alt. Az.
16 Apr 5.0 03:30:15 10° NE 03:34:15 23° E 03:38:13 10° SE visible
16 Apr 3.2 05:08:35 10° N 05:13:33 54° WNW 05:18:27 10° SW visible
17 Apr 5.7 02:55:19 10° ENE 02:56:25 11° E 02:57:31 10° E visible
17 Apr 3.1 04:31:10 10° NNE 04:36:16 75° ESE 04:41:20 10° S visible
18 Apr 4.3 03:54:07 10° NNE 03:58:48 36° E 04:03:27 10° SSE visible
18 Apr 3.8 05:33:10 10° N 05:37:44 35° WNW 05:42:17 10° SW visible
19 Apr 5.3 03:17:42 10° NE 03:21:07 18° E 03:24:30 10° SE visible
19 Apr 3.0 04:55:32 10° N 05:00:35 69° WNW 05:05:38 10° SSW visible
20 Apr 3.5 04:18:13 10° NNE 04:23:15 58° E 04:28:14 10° S visible
21 Apr 4.7 03:41:19 10° NE 03:45:43 28° E 03:50:03 10° SSE visible
21 Apr 3.5 05:20:02 10° N 05:24:50 43° WNW 05:29:36 10° SW visible
22 Apr 5.5 03:05:22 10° NE 03:07:57 14° E 03:10:30 10° ESE visible
22 Apr 3.0 04:42:30 10° NNE 04:47:37 87° WNW 04:52:41 10° SSW visible
23 Apr 3.9 04:05:19 10° NNE 04:10:12 45° E 04:15:03 10° S visible
24 Apr 5.1 03:28:37 10° NE 03:32:34 22° E 03:36:30 10° SE visible
24 Apr 3.2 05:06:55 10° N 05:11:53 55° WNW 05:16:49 10° SSW visible
25 Apr 5.8 02:53:53 10° ENE 02:54:45 10° E 02:55:36 10° E visible
25 Apr 3.2 04:29:30 10° NNE 04:34:37 74° ESE 04:39:40 10° S visible
